| time (UTC) | temp F | wind direction | speed MPH | gust MPH | rain 1hr in | rain 24hr in | rain mn in | humidity % | barometer mb |
| 20260505080228 | 53 | 20 | 0.0 | 2.0 | 0.00 | 0.00 | 0.00 | 88 | 1014.2 |
| 20260505075735 | 53 | 20 | 0.0 | 0.0 | 0.00 | 0.00 | 0.00 | 87 | 1014.2 |
| 20260505075304 | 53 | 20 | 0.0 | 0.0 | 0.00 | 0.00 | 0.00 | 87 | 1014.2 |
| 20260505075231 | 53 | 20 | 0.0 | 0.0 | 0.00 | 0.00 | 0.00 | 87 | 1014.2 |
| 20260505074738 | 53 | 20 | 0.0 | 2.0 | 0.00 | 0.00 | 0.00 | 87 | 1014.1 |
| 20260505074226 | 54 | 20 | 0.0 | 2.0 | 0.00 | 0.00 | 0.00 | 87 | 1014.1 |
| 20260505073734 | 54 | 20 | 0.0 | 2.0 | 0.00 | 0.00 | 0.00 | 86 | 1014.0 |
| 20260505073226 | 54 | 20 | 0.0 | 1.0 | 0.00 | 0.00 | 0.00 | 86 | 1013.9 |
| 20260505072733 | 54 | 20 | 0.0 | 1.0 | 0.00 | 0.00 | 0.00 | 86 | 1013.8 |
| 20260505072301 | 54 | 261 | 0.0 | 0.0 | 0.00 | 0.00 | 0.00 | 85 | 1013.8 |
| 20260505071738 | 54 | 261 | 0.0 | 0.0 | 0.00 | 0.00 | 0.00 | 85 | 1013.8 |
| 20260505071226 | 54 | 261 | 0.0 | 0.0 | 0.00 | 0.00 | 0.00 | 85 | 1013.7 |
| 20260505070734 | 54 | 261 | 0.0 | 0.0 | 0.00 | 0.00 | 0.00 | 85 | 1013.7 |
| 20260505070222 | 55 | 261 | 0.0 | 0.0 | 0.00 | 0.00 | 0.00 | 84 | 1013.6 |
| 20260505065729 | 55 | 261 | 0.0 | 0.0 | 0.00 | 0.00 | 0.00 | 84 | 1013.5 |
| 20260505065237 | 55 | 261 | 0.0 | 0.0 | 0.00 | 0.00 | 0.00 | 83 | 1013.5 |
| 20260505064725 | 55 | 261 | 0.0 | 0.0 | 0.00 | 0.00 | 0.00 | 83 | 1013.5 |
| 20260505064253 | 55 | 261 | 0.0 | 2.0 | 0.00 | 0.00 | 0.00 | 83 | 1013.5 |
| 20260505063733 | 55 | 261 | 0.0 | 2.0 | 0.00 | 0.00 | 0.00 | 83 | 1013.4 |
| 20260505063241 | 56 | 288 | 0.0 | 2.0 | 0.00 | 0.00 | 0.00 | 82 | 1013.3 |
| 20260505062808 | 56 | 304 | 0.0 | 2.0 | 0.00 | 0.00 | 0.00 | 82 | 1013.4 |
| 20260505062224 | 56 | 304 | 0.0 | 2.0 | 0.00 | 0.00 | 0.00 | 81 | 1013.3 |
| 20260505061731 | 56 | 311 | 0.0 | 2.0 | 0.00 | 0.00 | 0.00 | 81 | 1013.3 |
| 20260505061259 | 56 | 248 | 0.0 | 2.0 | 0.00 | 0.00 | 0.00 | 81 | 1013.1 |
| 20260505060755 | 56 | 247 | 0.0 | 2.0 | 0.00 | 0.00 | 0.00 | 80 | 1013.1 |
| 20260505060312 | 57 | 247 | 0.0 | 3.0 | 0.00 | 0.00 | 0.00 | 80 | 1013.1 |
| 20260505060240 | 57 | 247 | 0.0 | 3.0 | 0.00 | 0.00 | 0.00 | 80 | 1013.1 |
| 20260505055727 | 57 | 215 | 0.0 | 3.0 | 0.00 | 0.00 | 0.00 | 79 | 1013.1 |
| 20260505055235 | 57 | 142 | 0.0 | 3.0 | 0.00 | 0.00 | 0.00 | 79 | 1013.1 |
| 20260505054803 | 57 | 127 | 1.0 | 4.0 | 0.00 | 0.00 | 0.00 | 79 | 1013.1 |
| 20260505054731 | 57 | 127 | 1.0 | 4.0 | 0.00 | 0.00 | 0.00 | 79 | 1013.1 |
| 20260505054239 | 57 | 180 | 1.0 | 3.0 | 0.00 | 0.00 | 0.00 | 78 | 1012.9 |
| 20260505053727 | 58 | 88 | 0.0 | 2.0 | 0.00 | 0.00 | 0.00 | 78 | 1012.9 |
| 20260505053235 | 58 | 195 | 0.0 | 4.0 | 0.00 | 0.00 | 0.00 | 77 | 1012.9 |
| 20260505052722 | 58 | 227 | 1.0 | 4.0 | 0.00 | 0.00 | 0.00 | 76 | 1012.9 |
| 20260505052234 | 59 | 38 | 1.0 | 7.0 | 0.00 | 0.00 | 0.00 | 76 | 1013.0 |
| 20260505051802 | 59 | 282 | 2.0 | 7.0 | 0.00 | 0.00 | 0.00 | 76 | 1013.0 |
| 20260505051258 | 59 | 13 | 1.0 | 3.0 | 0.00 | 0.00 | 0.00 | 75 | 1013.0 |
| 20260505050735 | 60 | 255 | 0.0 | 2.0 | 0.00 | 0.00 | 0.00 | 75 | 1012.9 |
| 20260505050223 | 60 | 193 | 0.0 | 2.0 | 0.00 | 0.00 | 0.00 | 74 | 1012.8 |
| 20260505041725 | 63 | 125 | 1.0 | 2.0 | 0.00 | 0.00 | 0.00 | 69 | 1012.1 |
| 20260505041233 | 63 | 341 | 0.0 | 2.0 | 0.00 | 0.00 | 0.00 | 68 | 1012.0 |
| 20260505040721 | 63 | 281 | 1.0 | 6.0 | 0.00 | 0.00 | 0.00 | 68 | 1011.9 |
| 20260505040309 | 64 | 273 | 1.0 | 6.0 | 0.00 | 0.00 | 0.00 | 67 | 1011.9 |
| 20260505035725 | 64 | 67 | 1.0 | 3.0 | 0.00 | 0.00 | 0.00 | 67 | 1011.8 |
| 20260505035233 | 64 | 143 | 0.0 | 3.0 | 0.00 | 0.00 | 0.00 | 65 | 1011.7 |
| 20260505034721 | 65 | 338 | 0.0 | 4.0 | 0.00 | 0.00 | 0.00 | 65 | 1011.7 |
| 20260505034229 | 65 | 283 | 2.0 | 4.0 | 0.00 | 0.00 | 0.00 | 64 | 1011.7 |
| 20260505033737 | 66 | 94 | 0.0 | 3.0 | 0.00 | 0.00 | 0.00 | 64 | 1011.7 |
| 20260505033304 | 66 | 25 | 0.0 | 2.0 | 0.00 | 0.00 | 0.00 | 63 | 1011.4 |
| 20260505032740 | 66 | 210 | 1.0 | 3.0 | 0.00 | 0.00 | 0.00 | 62 | 1011.4 |
| 20260505032232 | 67 | 311 | 1.0 | 3.0 | 0.00 | 0.00 | 0.00 | 62 | 1011.5 |
| 20260505031740 | 67 | 202 | 0.0 | 7.0 | 0.00 | 0.00 | 0.00 | 61 | 1011.5 |
| 20260505031228 | 68 | 96 | 2.0 | 4.0 | 0.00 | 0.00 | 0.00 | 60 | 1011.3 |
| 20260505030736 | 68 | 286 | 0.0 | 4.0 | 0.00 | 0.00 | 0.00 | 60 | 1011.1 |
| 20260505030304 | 69 | 228 | 0.0 | 5.0 | 0.00 | 0.00 | 0.00 | 58 | 1011.2 |
| 20260505025739 | 69 | 228 | 1.0 | 5.0 | 0.00 | 0.00 | 0.00 | 57 | 1011.1 |
| 20260505025227 | 70 | 34 | 0.0 | 2.0 | 0.00 | 0.00 | 0.00 | 56 | 1011.1 |
| 20260505024735 | 70 | 163 | 0.0 | 4.0 | 0.00 | 0.00 | 0.00 | 55 | 1011.0 |
| 20260505024223 | 71 | 149 | 1.0 | 3.0 | 0.00 | 0.00 | 0.00 | 55 | 1011.0 |
| 20260505023731 | 71 | 272 | 1.0 | 3.0 | 0.00 | 0.00 | 0.00 | 53 | 1010.9 |
| 20260505023222 | 72 | 294 | 1.0 | 3.0 | 0.00 | 0.00 | 0.00 | 52 | 1010.8 |
| 20260505022729 | 73 | 260 | 1.0 | 3.0 | 0.00 | 0.00 | 0.00 | 52 | 1010.9 |
| 20260505022236 | 73 | 285 | 1.0 | 4.0 | 0.00 | 0.00 | 0.00 | 51 | 1010.9 |
| 20260505021724 | 74 | 188 | 1.0 | 4.0 | 0.00 | 0.00 | 0.00 | 51 | 1010.9 |
| 20260505021231 | 75 | 190 | 1.0 | 5.0 | 0.00 | 0.00 | 0.00 | 51 | 1010.9 |
| 20260505020739 | 75 | 252 | 1.0 | 5.0 | 0.00 | 0.00 | 0.00 | 51 | 1010.8 |
| 20260505020227 | 75 | 153 | 2.0 | 5.0 | 0.00 | 0.00 | 0.00 | 50 | 1010.8 |
| 20260505015753 | 76 | 185 | 1.0 | 5.0 | 0.00 | 0.00 | 0.00 | 49 | 1010.8 |
| 20260505015230 | 77 | 171 | 2.0 | 4.0 | 0.00 | 0.00 | 0.00 | 48 | 1010.8 |
| 20260505014738 | 77 | 277 | 1.0 | 5.0 | 0.00 | 0.00 | 0.00 | 48 | 1010.9 |
| 20260505014307 | 77 | 267 | 3.0 | 6.0 | 0.00 | 0.00 | 0.00 | 46 | 1010.9 |
| 20260505014234 | 77 | 267 | 3.0 | 6.0 | 0.00 | 0.00 | 0.00 | 46 | 1010.9 |
| 20260505013722 | 78 | 238 | 1.0 | 3.0 | 0.00 | 0.00 | 0.00 | 47 | 1010.9 |
| 20260505013310 | 78 | 143 | 1.0 | 2.0 | 0.00 | 0.00 | 0.00 | 46 | 1010.9 |
| 20260505012804 | 78 | 243 | 0.0 | 2.0 | 0.00 | 0.00 | 0.00 | 46 | 1010.9 |
| 20260505012225 | 78 | 303 | 1.0 | 4.0 | 0.00 | 0.00 | 0.00 | 45 | 1011.0 |
| 20260505011733 | 78 | 252 | 1.0 | 4.0 | 0.00 | 0.00 | 0.00 | 44 | 1011.1 |
| 20260505011301 | 79 | 313 | 1.0 | 3.0 | 0.00 | 0.00 | 0.00 | 43 | 1011.1 |
| 20260505011229 | 79 | 313 | 1.0 | 3.0 | 0.00 | 0.00 | 0.00 | 43 | 1011.1 |
| 20260505010737 | 80 | 49 | 1.0 | 3.0 | 0.00 | 0.00 | 0.00 | 43 | 1011.1 |
| 20260505010225 | 80 | 53 | 0.0 | 4.0 | 0.00 | 0.00 | 0.00 | 42 | 1011.2 |
| 20260505005732 | 80 | 355 | 1.0 | 4.0 | 0.00 | 0.00 | 0.00 | 41 | 1011.2 |
| 20260505005300 | 80 | 61 | 0.0 | 2.0 | 0.00 | 0.00 | 0.00 | 41 | 1011.3 |
| 20260505005228 | 80 | 61 | 0.0 | 2.0 | 0.00 | 0.00 | 0.00 | 41 | 1011.3 |
| 20260505004756 | 80 | 346 | 0.0 | 4.0 | 0.00 | 0.00 | 0.00 | 40 | 1011.1 |
| 20260505004724 | 80 | 346 | 0.0 | 4.0 | 0.00 | 0.00 | 0.00 | 40 | 1011.1 |
| 20260505004232 | 79 | 289 | 1.0 | 5.0 | 0.00 | 0.00 | 0.00 | 42 | 1011.2 |
| 20260505003740 | 79 | 193 | 1.0 | 5.0 | 0.00 | 0.00 | 0.00 | 39 | 1011.1 |
| 20260505003308 | 79 | 5 | 2.0 | 5.0 | 0.00 | 0.00 | 0.00 | 38 | 1011.0 |
| 20260505002723 | 79 | 85 | 2.0 | 4.0 | 0.00 | 0.00 | 0.00 | 39 | 1011.1 |
| 20260505002231 | 79 | 328 | 1.0 | 6.0 | 0.00 | 0.00 | 0.00 | 38 | 1011.2 |
| 20260505001731 | 79 | 313 | 3.0 | 6.0 | 0.00 | 0.00 | 0.00 | 37 | 1011.2 |
| 20260505001223 | 79 | 207 | 2.0 | 6.0 | 0.00 | 0.00 | 0.00 | 35 | 1011.1 |
| 20260505000731 | 79 | 277 | 2.0 | 4.0 | 0.00 | 0.00 | 0.00 | 34 | 1011.2 |
| 20260505000239 | 80 | 96 | 1.0 | 4.0 | 0.00 | 0.00 | 0.00 | 36 | 1011.2 |
| 20260504235726 | 80 | 155 | 2.0 | 5.0 | 0.00 | 0.00 | 0.00 | 34 | 1011.2 |
| 20260504235234 | 80 | 53 | 3.0 | 5.0 | 0.00 | 0.00 | 0.00 | 32 | 1011.2 |
| 20260504234722 | 80 | 42 | 2.0 | 5.0 | 0.00 | 0.00 | 0.00 | 31 | 1011.2 |
| 20260504234230 | 80 | 312 | 1.0 | 4.0 | 0.00 | 0.00 | 0.00 | 32 | 1011.4 |
| 20260504233738 | 79 | 86 | 2.0 | 9.0 | 0.00 | 0.00 | 0.00 | 32 | 1011.3 |
| 20260504233226 | 80 | 277 | 2.0 | 6.0 | 0.00 | 0.00 | 0.00 | 30 | 1011.3 |
| 20260504232733 | 80 | 157 | 1.0 | 8.0 | 0.00 | 0.00 | 0.00 | 33 | 1011.1 |
| 20260504232225 | 79 | 323 | 2.0 | 8.0 | 0.00 | 0.00 | 0.00 | 33 | 1011.2 |
| 20260504231733 | 80 | 297 | 2.0 | 5.0 | 0.00 | 0.00 | 0.00 | 34 | 1011.2 |
| 20260504231221 | 79 | 215 | 2.0 | 5.0 | 0.00 | 0.00 | 0.00 | 32 | 1011.4 |
| 20260504230729 | 79 | 145 | 1.0 | 7.0 | 0.00 | 0.00 | 0.00 | 30 | 1011.6 |
| 20260504230237 | 79 | 254 | 2.0 | 7.0 | 0.00 | 0.00 | 0.00 | 31 | 1011.8 |
| 20260504225724 | 79 | 165 | 3.0 | 7.0 | 0.00 | 0.00 | 0.00 | 31 | 1011.6 |
| 20260504225232 | 79 | 360 | 3.0 | 7.0 | 0.00 | 0.00 | 0.00 | 32 | 1011.7 |
| 20260504224740 | 79 | 298 | 1.0 | 7.0 | 0.00 | 0.00 | 0.00 | 33 | 1011.7 |
| 20260504224228 | 79 | 297 | 3.0 | 5.0 | 0.00 | 0.00 | 0.00 | 32 | 1011.8 |
| 20260504223740 | 79 | 237 | 2.0 | 6.0 | 0.00 | 0.00 | 0.00 | 32 | 1012.0 |
| 20260504223307 | 80 | 152 | 1.0 | 3.0 | 0.00 | 0.00 | 0.00 | 34 | 1011.9 |
| 20260504222723 | 79 | 262 | 1.0 | 8.0 | 0.00 | 0.00 | 0.00 | 33 | 1011.9 |
| 20260504222231 | 79 | 140 | 2.0 | 8.0 | 0.00 | 0.00 | 0.00 | 32 | 1012.0 |
| 20260504221739 | 79 | 219 | 2.0 | 5.0 | 0.00 | 0.00 | 0.00 | 34 | 1012.0 |
| 20260504221307 | 78 | 20 | 2.0 | 5.0 | 0.00 | 0.00 | 0.00 | 33 | 1012.1 |
| 20260504220804 | 78 | 271 | 2.0 | 4.0 | 0.00 | 0.00 | 0.00 | 34 | 1012.1 |
| 20260504220259 | 78 | 261 | 3.0 | 5.0 | 0.00 | 0.00 | 0.00 | 34 | 1012.1 |
| 20260504215735 | 78 | 284 | 1.0 | 5.0 | 0.00 | 0.00 | 0.00 | 35 | 1012.1 |
| 20260504215223 | 77 | 346 | 2.0 | 10.0 | 0.00 | 0.00 | 0.00 | 37 | 1012.2 |
| 20260504214731 | 77 | 311 | 5.0 | 10.0 | 0.00 | 0.00 | 0.00 | 35 | 1012.2 |
| 20260504214239 | 78 | 355 | 2.0 | 7.0 | 0.00 | 0.00 | 0.00 | 37 | 1012.3 |
| 20260504213727 | 77 | 184 | 1.0 | 7.0 | 0.00 | 0.00 | 0.00 | 38 | 1012.3 |
| 20260504213233 | 77 | 330 | 2.0 | 8.0 | 0.00 | 0.00 | 0.00 | 39 | 1012.3 |
| 20260504212724 | 76 | 334 | 3.0 | 8.0 | 0.00 | 0.00 | 0.00 | 39 | 1012.4 |
| 20260504212232 | 76 | 311 | 2.0 | 10.0 | 0.00 | 0.00 | 0.00 | 39 | 1012.5 |
| 20260504211739 | 75 | 270 | 6.0 | 10.0 | 0.00 | 0.00 | 0.00 | 38 | 1012.5 |
| 20260504211227 | 75 | 284 | 3.0 | 8.0 | 0.00 | 0.00 | 0.00 | 39 | 1012.5 |
| 20260504210755 | 75 | 270 | 2.0 | 10.0 | 0.00 | 0.00 | 0.00 | 38 | 1012.5 |
| 20260504210723 | 75 | 270 | 2.0 | 10.0 | 0.00 | 0.00 | 0.00 | 38 | 1012.5 |
| 20260504210311 | 75 | 337 | 3.0 | 7.0 | 0.00 | 0.00 | 0.00 | 41 | 1012.5 |
| 20260504210239 | 75 | 337 | 3.0 | 7.0 | 0.00 | 0.00 | 0.00 | 41 | 1012.5 |
| 20260504205726 | 75 | 263 | 2.0 | 8.0 | 0.00 | 0.00 | 0.00 | 41 | 1012.5 |
| 20260504205234 | 76 | 239 | 3.0 | 8.0 | 0.00 | 0.00 | 0.00 | 41 | 1012.5 |
| 20260504204722 | 75 | 22 | 1.0 | 10.0 | 0.00 | 0.00 | 0.00 | 45 | 1012.5 |
| 20260504204230 | 75 | 243 | 4.0 | 10.0 | 0.00 | 0.00 | 0.00 | 42 | 1012.5 |
| 20260504203737 | 75 | 303 | 1.0 | 5.0 | 0.00 | 0.00 | 0.00 | 44 | 1012.5 |
| 20260504203305 | 75 | 144 | 1.0 | 7.0 | 0.00 | 0.00 | 0.00 | 42 | 1012.5 |
| 20260504203233 | 75 | 144 | 1.0 | 7.0 | 0.00 | 0.00 | 0.00 | 42 | 1012.5 |
| 20260504202724 | 74 | 277 | 3.0 | 7.0 | 0.00 | 0.00 | 0.00 | 41 | 1012.5 |
| 20260504202232 | 74 | 323 | 4.0 | 7.0 | 0.00 | 0.00 | 0.00 | 43 | 1012.4 |
| 20260504201740 | 74 | 104 | 1.0 | 9.0 | 0.00 | 0.00 | 0.00 | 44 | 1012.4 |
| 20260504201228 | 74 | 265 | 3.0 | 9.0 | 0.00 | 0.00 | 0.00 | 46 | 1012.4 |
| 20260504200756 | 73 | 329 | 6.0 | 9.0 | 0.00 | 0.00 | 0.00 | 45 | 1012.4 |
| 20260504200313 | 73 | 311 | 3.0 | 9.0 | 0.00 | 0.00 | 0.00 | 45 | 1012.5 |
| 20260504200241 | 73 | 311 | 3.0 | 9.0 | 0.00 | 0.00 | 0.00 | 45 | 1012.5 |
| 20260504195728 | 74 | 281 | 4.0 | 9.0 | 0.00 | 0.00 | 0.00 | 44 | 1012.5 |
| 20260504195236 | 75 | 259 | 3.0 | 8.0 | 0.00 | 0.00 | 0.00 | 44 | 1012.8 |
| 20260504194724 | 75 | 146 | 2.0 | 6.0 | 0.00 | 0.00 | 0.00 | 45 | 1012.8 |
| 20260504194232 | 74 | 250 | 1.0 | 6.0 | 0.00 | 0.00 | 0.00 | 44 | 1012.8 |
| 20260504193800 | 74 | 302 | 3.0 | 7.0 | 0.00 | 0.00 | 0.00 | 44 | 1012.6 |
| 20260504193237 | 74 | 300 | 3.0 | 7.0 | 0.00 | 0.00 | 0.00 | 44 | 1012.6 |
| 20260504192724 | 74 | 298 | 2.0 | 7.0 | 0.00 | 0.00 | 0.00 | 45 | 1012.7 |
| 20260504192236 | 73 | 202 | 2.0 | 6.0 | 0.00 | 0.00 | 0.00 | 45 | 1012.8 |
| 20260504191724 | 73 | 284 | 2.0 | 9.0 | 0.00 | 0.00 | 0.00 | 48 | 1012.9 |
| 20260504191232 | 73 | 263 | 4.0 | 9.0 | 0.00 | 0.00 | 0.00 | 47 | 1012.7 |
| 20260504190800 | 74 | 271 | 1.0 | 9.0 | 0.00 | 0.00 | 0.00 | 48 | 1012.7 |
| 20260504190236 | 74 | 339 | 1.0 | 7.0 | 0.00 | 0.00 | 0.00 | 48 | 1012.7 |
| 20260504185723 | 73 | 338 | 2.0 | 7.0 | 0.00 | 0.00 | 0.00 | 50 | 1012.8 |
| 20260504185231 | 72 | 285 | 2.0 | 8.0 | 0.00 | 0.00 | 0.00 | 51 | 1012.8 |
| 20260504184739 | 73 | 314 | 3.0 | 9.0 | 0.00 | 0.00 | 0.00 | 50 | 1012.9 |
| 20260504184227 | 73 | 355 | 1.0 | 5.0 | 0.00 | 0.00 | 0.00 | 48 | 1013.0 |
| 20260504183735 | 73 | 295 | 2.0 | 5.0 | 0.00 | 0.00 | 0.00 | 49 | 1012.8 |
| 20260504183227 | 73 | 213 | 1.0 | 4.0 | 0.00 | 0.00 | 0.00 | 47 | 1012.9 |
| 20260504182734 | 74 | 240 | 2.0 | 4.0 | 0.00 | 0.00 | 0.00 | 47 | 1012.8 |
| 20260504182222 | 73 | 53 | 1.0 | 4.0 | 0.00 | 0.00 | 0.00 | 48 | 1012.9 |
| 20260504181730 | 73 | 277 | 2.0 | 4.0 | 0.00 | 0.00 | 0.00 | 49 | 1012.8 |
| 20260504181258 | 72 | 285 | 2.0 | 4.0 | 0.00 | 0.00 | 0.00 | 49 | 1012.8 |
| 20260504180734 | 72 | 345 | 1.0 | 4.0 | 0.00 | 0.00 | 0.00 | 50 | 1012.8 |
| 20260504180301 | 72 | 314 | 1.0 | 4.0 | 0.00 | 0.00 | 0.00 | 51 | 1012.8 |
| 20260504175737 | 71 | 333 | 1.0 | 8.0 | 0.00 | 0.00 | 0.00 | 54 | 1012.7 |
| 20260504175225 | 71 | 263 | 5.0 | 8.0 | 0.00 | 0.00 | 0.00 | 50 | 1012.6 |
| 20260504174733 | 71 | 267 | 2.0 | 6.0 | 0.00 | 0.00 | 0.00 | 50 | 1012.7 |
| 20260504174240 | 71 | 251 | 3.0 | 6.0 | 0.00 | 0.00 | 0.00 | 50 | 1012.6 |
| 20260504173728 | 72 | 161 | 2.0 | 4.0 | 0.00 | 0.00 | 0.00 | 50 | 1012.5 |
| 20260504173256 | 71 | 251 | 1.0 | 3.0 | 0.00 | 0.00 | 0.00 | 51 | 1012.7 |
| 20260504172735 | 71 | 267 | 1.0 | 4.0 | 0.00 | 0.00 | 0.00 | 50 | 1012.6 |
| 20260504172223 | 71 | 27 | 2.0 | 4.0 | 0.00 | 0.00 | 0.00 | 50 | 1012.7 |
| 20260504171810 | 70 | 131 | 0.0 | 7.0 | 0.00 | 0.00 | 0.00 | 53 | 1012.6 |
| 20260504171227 | 70 | 277 | 3.0 | 7.0 | 0.00 | 0.00 | 0.00 | 52 | 1012.6 |
| 20260504170735 | 70 | 273 | 1.0 | 4.0 | 0.00 | 0.00 | 0.00 | 55 | 1012.6 |
| 20260504170223 | 69 | 299 | 1.0 | 3.0 | 0.00 | 0.00 | 0.00 | 55 | 1012.8 |
| 20260504160306 | 67 | 34 | 1.0 | 2.0 | 0.00 | 0.00 | 0.00 | 53 | 1012.2 |
| 20260504160235 | 67 | 34 | 1.0 | 2.0 | 0.00 | 0.00 | 0.00 | 53 | 1012.2 |
| 20260504150755 | 60 | 82 | 0.0 | 0.0 | 0.00 | 0.00 | 0.00 | 73 | 1011.8 |
| 20260504150232 | 59 | 82 | 0.0 | 2.0 | 0.00 | 0.00 | 0.00 | 75 | 1011.8 |
| 20260504141259 | 53 | 105 | 0.0 | 0.0 | 0.00 | 0.00 | 0.00 | 86 | 1011.4 |
| 20260504141227 | 53 | 105 | 0.0 | 0.0 | 0.00 | 0.00 | 0.00 | 86 | 1011.4 |
| 20260504140735 | 52 | 105 | 0.0 | 0.0 | 0.00 | 0.00 | 0.00 | 87 | 1011.4 |
| 20260504140222 | 51 | 105 | 0.0 | 0.0 | 0.00 | 0.00 | 0.00 | 88 | 1011.3 |
| 20260504130739 | 49 | 105 | 0.0 | 0.0 | 0.00 | 0.00 | 0.00 | 92 | 1011.0 |
| 20260504130307 | 49 | 105 | 0.0 | 0.0 | 0.00 | 0.00 | 0.00 | 92 | 1010.9 |
| 20260504120259 | 49 | 52 | 0.0 | 1.0 | 0.00 | 0.00 | 0.00 | 90 | 1010.8 |
| 20260504110237 | 50 | 52 | 0.0 | 0.0 | 0.00 | 0.00 | 0.00 | 90 | 1010.8 |
| 20260504100230 | 52 | 52 | 0.0 | 0.0 | 0.00 | 0.00 | 0.00 | 87 | 1010.5 |
| 20260504081737 | 55 | 32 | 0.0 | 0.0 | 0.00 | 0.00 | 0.00 | 82 | 1010.6 |
| 20260504081225 | 55 | 32 | 0.0 | 0.0 | 0.00 | 0.00 | 0.00 | 82 | 1010.5 |
| 20260504080733 | 55 | 32 | 0.0 | 0.0 | 0.00 | 0.00 | 0.00 | 82 | 1010.6 |